LiveATC.Net - Listen to live air traffic control over the Internet!

Find LiveATC Audio Streams


Airport/ARTCC Code

Frequency
(e.g., 124.400, 128.75)
Site-wide search

Browse LiveATC Feeds
LiveATC Coverage Map
Top 50 LiveATC Feeds
Bad Weather Areas

LiveATC FAQ
Offer a LiveATC Feed
Contact LiveATC.net
Press Inquiries

LiveATC on iPhone
LiveATC on Android

Windows Phone
Windows 8/10

LiveATC Mobile
(Mobile browser)

ATC Audio Archives
Interesting Recordings

LiveATC Forums

Home Page
About LiveATC.net
Make a Donation
LiveATC Store

Terms of Use
Privacy Policy

Canadian Air Freqs

AIRMETs/SIGMETs

FAA Airport Status
Nat'l Airspace Status
Arrival Demand Charts


Server Software By:
Icecast.org
Liquidsoap

Select an area of interest:
U.S. Feeds: Class B Airports | Class C Airports | Class D/Other Airports | ARTCC (Centers)
International Feeds: Canada | Europe | Oceania | Asia | South America | North/Central America | Africa
Misc Feeds: HF Feeds
Search by ICAO/IATA airport code:   (e.g., kbos, kjfk, lax, eham, etc.)


Currently Available Live Feeds: 1439
Status Updated: Mon Jun 27 2016 02:10:01 UTC


NOTICE

Unauthorized use prohibited. See LiveATC.net Terms of Service

Asia Airport Feeds

 

LCPH Gnd/Twr/App/Radar (Archives)
Paphos, Cyprus

Feed Status: UP

Click on your favorite media player to listen:
Listen with WinAmp to LCPH Gnd/Twr/App/Radar  Listen with iTunes to LCPH Gnd/Twr/App/Radar  Click here to listen if using Real Player  Click here to listen if using Windows Media Player

Or simply listen in your browser:

Listen right in your browser(in browser, requires Flash)

LCPH 270130Z AUTO 32006KT 9999 NCD 24/20 Q1008

LCPH Flight Activity (Flightaware)

Listeners: 0 out of 678 total

Nicosia Radar: 124.200
Nicosia West Radar: 125.500
Pafos Tower: 119.900
Paphos Gnd/Twr/App: 119.900

LTAC Tower/Approach (Archives)
Ankara, Turkey

Feed Status: UP

Click on your favorite media player to listen:
Listen with WinAmp to LTAC Tower/Approach  Listen with iTunes to LTAC Tower/Approach  Click here to listen if using Real Player  Click here to listen if using Windows Media Player

Or simply listen in your browser:

Listen right in your browser(in browser, requires Flash)

LTAC 270150Z VRB01KT CAVOK 16/10 Q1011 NOSIG

LTAC Flight Activity (Flightaware)

Listeners: 0 out of 678 total

Ankara Approach: 119.600
Ankara Approach (Center): 131.050
Ankara Approach (Upper): 132.150
Ankara Approach (West): 120.600
Ankara Approach (West): 128.800
Ankara Approach (West/Upper): 128.450
Esenboga Tower: 118.100

LTAF Tower/Approach (Archives)
Adana, Turkey

Feed Status: UP

Click on your favorite media player to listen:
Listen with WinAmp to LTAF Tower/Approach  Listen with iTunes to LTAF Tower/Approach  Click here to listen if using Real Player  Click here to listen if using Windows Media Player

Or simply listen in your browser:

Listen right in your browser(in browser, requires Flash)

LTAF 270150Z 10003KT 9999 SCT035 26/24 Q1006 NOSIG

LTAF Flight Activity (Flightaware)

Listeners: 0 out of 678 total

Adana Approach: 118.300
Adana Tower: 131.100
Adana Tower: 121.100

HF CWP 8903
Manila, Philippines

Feed Status: DOWN
Offline since: 2016-06-26 06:24:03 UTC

HF CWP: 8.903

HF SEA-2 8942
Manila, Philippines

Feed Status: DOWN
Offline since: 2016-06-26 06:24:03 UTC

HF SEA-2: 8.942

OKBK Gnd/Twr/App/Radar (Archives)
Kuwait City, Kuwait

Feed Status: UP

Click on your favorite media player to listen:
Listen with WinAmp to OKBK Gnd/Twr/App/Radar  Listen with iTunes to OKBK Gnd/Twr/App/Radar  Click here to listen if using Real Player  Click here to listen if using Windows Media Player

Or simply listen in your browser:

Listen right in your browser(in browser, requires Flash)

OKBK 270200Z 33003KT 5000 -HZ SKC 31/09 Q1000 NOSIG


Listeners: 0 out of 678 total

Kuwait Approach: 121.300
Kuwait Approach: 124.800
Kuwait Ground: 121.700
Kuwait Radar (Center): 125.300
Kuwait Tower: 118.300

OMDB Arrival (Archives)
Dubai, United Arab Emirates

Feed Status: UP

Click on your favorite media player to listen:
Listen with WinAmp to OMDB Arrival  Listen with iTunes to OMDB Arrival  Click here to listen if using Real Player  Click here to listen if using Windows Media Player

Or simply listen in your browser:

Listen right in your browser(in browser, requires Flash)

OMDB 270200Z VRB01KT CAVOK 33/15 Q0998 NOSIG


Listeners: 1 out of 678 total

Dubai Arrival: 124.900

OMDB Clearance Delivery (Archives)
Dubai, United Arab Emirates

Feed Status: UP

Click on your favorite media player to listen:
Listen with WinAmp to OMDB Clearance Delivery  Listen with iTunes to OMDB Clearance Delivery  Click here to listen if using Real Player  Click here to listen if using Windows Media Player

Or simply listen in your browser:

Listen right in your browser(in browser, requires Flash)

OMDB 270200Z VRB01KT CAVOK 33/15 Q0998 NOSIG


Listeners: 0 out of 678 total

Dubai Clearance Delivery: 120.350

OMDB Ground (Primary) (Archives)
Dubai, United Arab Emirates

Feed Status: UP

Click on your favorite media player to listen:
Listen with WinAmp to OMDB Ground (Primary)  Listen with iTunes to OMDB Ground (Primary)  Click here to listen if using Real Player  Click here to listen if using Windows Media Player

Or simply listen in your browser:

Listen right in your browser(in browser, requires Flash)

OMDB 270200Z VRB01KT CAVOK 33/15 Q0998 NOSIG


Listeners: 0 out of 678 total

Dubai Ground (Primary): 118.850

OMDB Ground (Secondary) (Archives)
Dubai, United Arab Emirates

Feed Status: UP

Click on your favorite media player to listen:
Listen with WinAmp to OMDB Ground (Secondary)  Listen with iTunes to OMDB Ground (Secondary)  Click here to listen if using Real Player  Click here to listen if using Windows Media Player

Or simply listen in your browser:

Listen right in your browser(in browser, requires Flash)

OMDB 270200Z VRB01KT CAVOK 33/15 Q0998 NOSIG


Listeners: 0 out of 678 total

Dubai Ground (Secondary): 118.350

OMDB North Dep (Archives)
Dubai, United Arab Emirates

Feed Status: UP

Click on your favorite media player to listen:
Listen with WinAmp to OMDB North Dep  Listen with iTunes to OMDB North Dep  Click here to listen if using Real Player  Click here to listen if using Windows Media Player

Or simply listen in your browser:

Listen right in your browser(in browser, requires Flash)

OMDB 270200Z VRB01KT CAVOK 33/15 Q0998 NOSIG


Listeners: 0 out of 678 total

Dubai Departure (North): 124.450

OMDB Tower #1 (Archives)
Dubai, United Arab Emirates

Feed Status: UP

Click on your favorite media player to listen:
Listen with WinAmp to OMDB Tower #1  Listen with iTunes to OMDB Tower #1  Click here to listen if using Real Player  Click here to listen if using Windows Media Player

Or simply listen in your browser:

Listen right in your browser(in browser, requires Flash)

OMDB 270200Z VRB01KT CAVOK 33/15 Q0998 NOSIG


Listeners: 1 out of 678 total

Dubai Tower: 119.550

OMDB Tower #2 (Archives)
Dubai, United Arab Emirates

Feed Status: UP

Click on your favorite media player to listen:
Listen with WinAmp to OMDB Tower #2  Listen with iTunes to OMDB Tower #2  Click here to listen if using Real Player  Click here to listen if using Windows Media Player

Or simply listen in your browser:

Listen right in your browser(in browser, requires Flash)

OMDB 270200Z VRB01KT CAVOK 33/15 Q0998 NOSIG


Listeners: 0 out of 678 total

Dubai Tower: 118.750

OMDB Tower (both) (Archives)
Dubai, United Arab Emirates

Feed Status: UP

Click on your favorite media player to listen:
Listen with WinAmp to OMDB Tower (both)  Listen with iTunes to OMDB Tower (both)  Click here to listen if using Real Player  Click here to listen if using Windows Media Player

Or simply listen in your browser:

Listen right in your browser(in browser, requires Flash)

OMDB 270200Z VRB01KT CAVOK 33/15 Q0998 NOSIG


Listeners: 1 out of 678 total

Dubai Tower: 118.750
Dubai Tower: 119.550

OMSJ Tower (Archives)
Dubai, United Arab Emirates

Feed Status: UP

Click on your favorite media player to listen:
Listen with WinAmp to OMSJ Tower  Listen with iTunes to OMSJ Tower  Click here to listen if using Real Player  Click here to listen if using Windows Media Player

Or simply listen in your browser:

Listen right in your browser(in browser, requires Flash)

OMSJ 270200Z 12006KT CAVOK 29/17 Q0998


Listeners: 0 out of 678 total

Sharjah Tower: 118.600

OPKC Gnd/Twr/Radar (Archives)
Karachi, Pakistan

Feed Status: UP

Click on your favorite media player to listen:
Listen with WinAmp to OPKC Gnd/Twr/Radar  Listen with iTunes to OPKC Gnd/Twr/Radar  Click here to listen if using Real Player  Click here to listen if using Windows Media Player

Or simply listen in your browser:

Listen right in your browser(in browser, requires Flash)

OPKC 270155Z 07005KT 6000 FEW030 SCT100 30/23 Q0999 NOSIG


Listeners: 1 out of 678 total

Karachi Ground: 121.600
Karachi Radar: 125.500
Karachi Tower: 118.300

OPLA ATIS (Archives)
Lahore, Pakistan

Feed Status: UP

Click on your favorite media player to listen:
Listen with WinAmp to OPLA ATIS  Listen with iTunes to OPLA ATIS  Click here to listen if using Real Player  Click here to listen if using Windows Media Player

Or simply listen in your browser:

Listen right in your browser(in browser, requires Flash)

OPLA 270155Z 17008KT 5000 FU SCT100 31/25 Q1000 TEMPO 15040KT 0800 DSTSRA FEW030CB


Listeners: 0 out of 678 total

Lahore ATIS: 126.300

OPLA/OPLH Gnd/Twr/App (Archives)
Lahore, Pakistan

Feed Status: UP

Click on your favorite media player to listen:
Listen with WinAmp to OPLA/OPLH Gnd/Twr/App  Listen with iTunes to OPLA/OPLH Gnd/Twr/App  Click here to listen if using Real Player  Click here to listen if using Windows Media Player

Or simply listen in your browser:

Listen right in your browser(in browser, requires Flash)

OPLA 270155Z 17008KT 5000 FU SCT100 31/25 Q1000 TEMPO 15040KT 0800 DSTSRA FEW030CB


Listeners: 1 out of 678 total

Lahore Approach: 121.300
Lahore Approach: 125.300
Lahore Control: 127.500
Lahore Ground: 118.400
Lahore Tower: 118.100
Lahore Tower: 121.800
Walton (OPLH) Tower: 119.400

OPLA/OPLH Gnd/Twr/App (Archives)
Lahore, Pakistan

Feed Status: UP

Click on your favorite media player to listen:
Listen with WinAmp to OPLA/OPLH Gnd/Twr/App  Listen with iTunes to OPLA/OPLH Gnd/Twr/App  Click here to listen if using Real Player  Click here to listen if using Windows Media Player

Or simply listen in your browser:

Listen right in your browser(in browser, requires Flash)

OPLA 270155Z 17008KT 5000 FU SCT100 31/25 Q1000 TEMPO 15040KT 0800 DSTSRA FEW030CB


Listeners: 1 out of 678 total

Lahore Approach: 121.300
Lahore Approach: 125.300
Lahore Control: 127.500
Lahore Ground: 118.400
Lahore Tower: 118.100
Lahore Tower: 121.800
Walton (OPLH) Tower: 119.400

OPMT Twr/App
Multan, Pakistan

Feed Status: DOWN
Offline since: 2016-05-02 19:43:03 UTC
OPMT 262350Z 18010KTS 4000 FU FEW120 32/24 Q0998 NOSIG

Multan Approach/Departure: 123.150
Multan Tower: 119.100

OPRN Approach (Archives)
Islamabad, Pakistan

Feed Status: UP

Click on your favorite media player to listen:
Listen with WinAmp to OPRN Approach  Listen with iTunes to OPRN Approach  Click here to listen if using Real Player  Click here to listen if using Windows Media Player

Or simply listen in your browser:

Listen right in your browser(in browser, requires Flash)

OPRN 270000Z 05010KT 4000 HZ FEW100 30/24 Q1004.1/29.65


Listeners: 1 out of 678 total

Islamabad Approach: 124.900

OPRN ATIS (Archives)
Islamabad, Pakistan

Feed Status: UP

Click on your favorite media player to listen:
Listen with WinAmp to OPRN ATIS  Listen with iTunes to OPRN ATIS  Click here to listen if using Real Player  Click here to listen if using Windows Media Player

Or simply listen in your browser:

Listen right in your browser(in browser, requires Flash)

OPRN 270000Z 05010KT 4000 HZ FEW100 30/24 Q1004.1/29.65


Listeners: 0 out of 678 total

Islamabad ATIS: 129.600

OPRN Tower (Archives)
Islamabad, Pakistan

Feed Status: UP

Click on your favorite media player to listen:
Listen with WinAmp to OPRN Tower  Listen with iTunes to OPRN Tower  Click here to listen if using Real Player  Click here to listen if using Windows Media Player

Or simply listen in your browser:

Listen right in your browser(in browser, requires Flash)

OPRN 270000Z 05010KT 4000 HZ FEW100 30/24 Q1004.1/29.65


Listeners: 1 out of 678 total

Islamabad Tower: 123.700

RCKH Ground
Kaohsiung, Taiwan

Feed Status: DOWN
Offline since: 2015-05-24 11:58:03 UTC
RCKH 270130Z 23006KT 190V280 9999 FEW025 SCT320 31/25 Q1008 NOSIG RMK A2979

Kaohsiung Ground: 121.900

RCKH Tower
Kaohsiung, Taiwan

Feed Status: DOWN
Offline since: 2015-06-03 18:36:03 UTC
RCKH 270130Z 23006KT 190V280 9999 FEW025 SCT320 31/25 Q1008 NOSIG RMK A2979

Kaohsiung Tower: 118.700

RCSS Approach (Archives)
Taipei, Taiwan

Feed Status: UP

Click on your favorite media player to listen:
Listen with WinAmp to RCSS Approach  Listen with iTunes to RCSS Approach  Click here to listen if using Real Player  Click here to listen if using Windows Media Player

Or simply listen in your browser:

Listen right in your browser(in browser, requires Flash)

RCSS 270130Z 12005KT 080V180 9999 FEW020 SCT250 33/24 Q1008 NOSIG RMK A2979

RCSS Flight Activity (Flightaware)

Listeners: 1 out of 678 total

Taipei Approach: 119.700

RCSS Ground/Delivery (Archives)
Taipei, Taiwan

Feed Status: UP

Click on your favorite media player to listen:
Listen with WinAmp to RCSS Ground/Delivery  Listen with iTunes to RCSS Ground/Delivery  Click here to listen if using Real Player  Click here to listen if using Windows Media Player

Or simply listen in your browser:

Listen right in your browser(in browser, requires Flash)

RCSS 270130Z 12005KT 080V180 9999 FEW020 SCT250 33/24 Q1008 NOSIG RMK A2979

RCSS Flight Activity (Flightaware)

Listeners: 0 out of 678 total

Songshan Clearance Delivery: 121.200
Songshan Ground: 121.900

RCSS Tower (Archives)
Taipei, Taiwan

Feed Status: UP

Click on your favorite media player to listen:
Listen with WinAmp to RCSS Tower  Listen with iTunes to RCSS Tower  Click here to listen if using Real Player  Click here to listen if using Windows Media Player

Or simply listen in your browser:

Listen right in your browser(in browser, requires Flash)

RCSS 270130Z 12005KT 080V180 9999 FEW020 SCT250 33/24 Q1008 NOSIG RMK A2979

RCSS Flight Activity (Flightaware)

Listeners: 0 out of 678 total

Songshan Tower: 118.100

RCTP Tower
Taipei, Taiwan

Feed Status: DOWN
Offline since: 2016-06-25 13:24:03 UTC
RCTP 270130Z 33005KT 280V030 9999 FEW025 BKN220 33/24 Q1008 NOSIG RMK A2979

Taipei Tower: 118.700

RJSF RDO (Archives)
Sukagawa, Japan

Feed Status: UP

Click on your favorite media player to listen:
Listen with WinAmp to RJSF RDO  Listen with iTunes to RJSF RDO  Click here to listen if using Real Player  Click here to listen if using Windows Media Player

Or simply listen in your browser:

Listen right in your browser(in browser, requires Flash)

RJSF 270100Z 02006KT 300V050 9999 FEW030 23/13 Q1015

RJSF Flight Activity (Flightaware)

Listeners: 7 out of 678 total

Fukushima Radio: 118.050

RJTT App/Dep (Archives)
Tokyo, Japan

Feed Status: UP

Click on your favorite media player to listen:
Listen with WinAmp to RJTT App/Dep  Listen with iTunes to RJTT App/Dep  Click here to listen if using Real Player  Click here to listen if using Windows Media Player

Or simply listen in your browser:

Listen right in your browser(in browser, requires Flash)

RJTT 270130Z 06002KT 9999 FEW020 24/19 Q1014 NOSIG

RJTT Flight Activity (Flightaware)

Listeners: 30 out of 678 total

Tokyo Approach: 119.100
Tokyo Approach: 119.400
Tokyo Departure: 120.800
Tokyo Departure: 126.000

RJTT Tokyo Control (Archives)
Tokyo, Japan

Feed Status: UP

Click on your favorite media player to listen:
Listen with WinAmp to RJTT Tokyo Control  Listen with iTunes to RJTT Tokyo Control  Click here to listen if using Real Player  Click here to listen if using Windows Media Player

Or simply listen in your browser:

Listen right in your browser(in browser, requires Flash)

RJTT 270130Z 06002KT 9999 FEW020 24/19 Q1014 NOSIG

RJTT Flight Activity (Flightaware)

Listeners: 12 out of 678 total

Tokyo Control: 133.700
Tokyo Control: 125.900
Tokyo Control: 120.500

RJTT Twr/TCA (Archives)
Tokyo, Japan

Feed Status: UP

Click on your favorite media player to listen:
Listen with WinAmp to RJTT Twr/TCA  Listen with iTunes to RJTT Twr/TCA  Click here to listen if using Real Player  Click here to listen if using Windows Media Player

Or simply listen in your browser:

Listen right in your browser(in browser, requires Flash)

RJTT 270130Z 06002KT 9999 FEW020 24/19 Q1014 NOSIG

RJTT Flight Activity (Flightaware)

Listeners: 7 out of 678 total

Tokyo TCA: 124.750
Tokyo Tower: 124.350
Tokyo Tower: 118.725
Tokyo Tower: 118.575
Tokyo Tower: 118.100

RKSG Gnd/Twr/App (Archives)
Pyeongtaek, Korea, Republic of

Feed Status: UP

Click on your favorite media player to listen:
Listen with WinAmp to RKSG Gnd/Twr/App  Listen with iTunes to RKSG Gnd/Twr/App  Click here to listen if using Real Player  Click here to listen if using Windows Media Player

Or simply listen in your browser:

Listen right in your browser(in browser, requires Flash)

RKSG 270058Z 18004KT 4SM BKN180 26/21 A2983 RMK AO2A SLP104 T02600212 $

RKSG Flight Activity (Flightaware)

Listeners: 1 out of 678 total

Desiderio Final: 255.800
Desiderio GCA: 226.800
Desiderio GCA: 127.000
Desiderio Ground (Camp Humphreys A-511 AAF): 119.500
Desiderio Ground UHF: 229.700
Desiderio Ops: 294.100
Desiderio Tower (Camp Humphreys A-511 AAF): 122.500
Desiderio Tower UHF: 257.800

RKRR Incheon Control (Archives)
Incheon, Korea, Republic of

Feed Status: UP

Click on your favorite media player to listen:
Listen with WinAmp to RKRR Incheon Control  Listen with iTunes to RKRR Incheon Control  Click here to listen if using Real Player  Click here to listen if using Windows Media Player

Or simply listen in your browser:

Listen right in your browser(in browser, requires Flash)

RKSI 270130Z 18007KT CAVOK 24/16 Q1010 NOSIG

RKSI Flight Activity (Flightaware)

Listeners: 5 out of 678 total

Incheon Control North Sector (Primary): 128.700
Incheon Control North Sector (Secondary): 132.800
Incheon Control Northwest Sector (Primary): 126.175
Incheon Control Northwest Sector (Secondary): 123.725

RKSO Gnd/Twr/App (Archives)
Pyeongtaek, Korea, Republic of

Feed Status: UP

Click on your favorite media player to listen:
Listen with WinAmp to RKSO Gnd/Twr/App  Listen with iTunes to RKSO Gnd/Twr/App  Click here to listen if using Real Player  Click here to listen if using Windows Media Player

Or simply listen in your browser:

Listen right in your browser(in browser, requires Flash)

RKSO 270058Z 06001KT 7SM BKN240 25/17 A2982 RMK AO2A SLP101 T02510168 $

RKSO Flight Activity (Flightaware)

Listeners: 1 out of 678 total

25 FS Ops: 229.000
36FS Ops: 371.300
Osan Air Base Approach/Departure: 127.900
Osan Air Base Approach/Departure: 133.650
Osan Air Base Ground: 132.450
Osan Air Base Tower: 122.100
Osan App/Dep UHF: 306.600
Osan App/Dep UHF: 234.300
Osan App/Dep UHF (possibly inactive): 306.300
Osan App/Dep UHF (possibly inactive): 363.100
Osan Ground UHF: 253.700
Osan SAR: 282.800
Osan SAR: 381.000
Osan SOF: 299.800
Osan Tower UHF: 308.800
Stallion Ops: 276.200

RPLL Approach/Departure (Archives)
Manila, Philippines

Feed Status: UP

Click on your favorite media player to listen:
Listen with WinAmp to RPLL Approach/Departure  Listen with iTunes to RPLL Approach/Departure  Click here to listen if using Real Player  Click here to listen if using Windows Media Player

Or simply listen in your browser:

Listen right in your browser(in browser, requires Flash)

RPLL 270200Z 11006KT 030V200 9999 SCT025 BKN100 OVC280 31/24 Q1009 NOSIG RMK A2980

RPLL Flight Activity (Flightaware)

Listeners: 1 out of 678 total

Manila Approach/Departure: 121.100
Manila Approach/Departure: 119.700
Manila Center/Control: 128.300

RPLL Tower (Archives)
Manila, Philippines

Feed Status: UP

Click on your favorite media player to listen:
Listen with WinAmp to RPLL Tower  Listen with iTunes to RPLL Tower  Click here to listen if using Real Player  Click here to listen if using Windows Media Player

Or simply listen in your browser:

Listen right in your browser(in browser, requires Flash)

RPLL 270200Z 11006KT 030V200 9999 SCT025 BKN100 OVC280 31/24 Q1009 NOSIG RMK A2980

RPLL Flight Activity (Flightaware)

Listeners: 0 out of 678 total

Manila Tower: 118.100

RPUN Tower (Archives)
Pili-Luzon Island, Philippines

Feed Status: UP

Click on your favorite media player to listen:
Listen with WinAmp to RPUN Tower  Listen with iTunes to RPUN Tower  Click here to listen if using Real Player  Click here to listen if using Windows Media Player

Or simply listen in your browser:

Listen right in your browser(in browser, requires Flash)

METAR NOT AVAILABLE

RPUN Flight Activity (Flightaware)

Listeners: 0 out of 678 total

Naga Tower: 122.100

HF CWP/SEA (Archives)
Pyeongtaek, Korea, Republic of

Feed Status: UP

Click on your favorite media player to listen:
Listen with WinAmp to HF CWP/SEA  Listen with iTunes to HF CWP/SEA  Click here to listen if using Real Player  Click here to listen if using Windows Media Player

Or simply listen in your browser:

Listen right in your browser(in browser, requires Flash)


Listeners: 0 out of 678 total

CWP 1 (Tokyo): 11.384
CWP 1/2 (Tokyo): 13.300
CWP-1/2 (San Francisco): 17.904
CWP-1/2 (Tokyo/Manila): 8.903
CWP-1/2 (Tokyo/San Francisco): 21.985
SEA-2 (Manila): 8.942

UAAA Approach (Archives)
Almaty, Kazakhstan

Feed Status: UP

Click on your favorite media player to listen:
Listen with WinAmp to UAAA Approach  Listen with iTunes to UAAA Approach  Click here to listen if using Real Player  Click here to listen if using Windows Media Player

Or simply listen in your browser:

Listen right in your browser(in browser, requires Flash)

UAAA 270130Z 22004MPS 9999 FEW050CB BKN100 23/11 Q1007 R88/CLRD65 NOSIG

UAAA Flight Activity (Flightaware)

Listeners: 0 out of 678 total

Almaty Approach: 124.800

UAAA Tower (Archives)
Almaty, Kazakhstan

Feed Status: UP

Click on your favorite media player to listen:
Listen with WinAmp to UAAA Tower  Listen with iTunes to UAAA Tower  Click here to listen if using Real Player  Click here to listen if using Windows Media Player

Or simply listen in your browser:

Listen right in your browser(in browser, requires Flash)

UAAA 270130Z 22004MPS 9999 FEW050CB BKN100 23/11 Q1007 R88/CLRD65 NOSIG

UAAA Flight Activity (Flightaware)

Listeners: 0 out of 678 total

Almaty Tower: 119.400

UAAA Tower/Approach (Archives)
Almaty, Kazakhstan

Feed Status: UP

Click on your favorite media player to listen:
Listen with WinAmp to UAAA Tower/Approach  Listen with iTunes to UAAA Tower/Approach  Click here to listen if using Real Player  Click here to listen if using Windows Media Player

Or simply listen in your browser:

Listen right in your browser(in browser, requires Flash)

UAAA 270130Z 22004MPS 9999 FEW050CB BKN100 23/11 Q1007 R88/CLRD65 NOSIG

UAAA Flight Activity (Flightaware)

Listeners: 0 out of 678 total

Almaty Approach: 124.800
Almaty Tower: 119.400

UIII Irkutsk Control (Archives)
Irkutsk, Russia

Feed Status: UP

Click on your favorite media player to listen:
Listen with WinAmp to UIII Irkutsk Control  Listen with iTunes to UIII Irkutsk Control  Click here to listen if using Real Player  Click here to listen if using Windows Media Player

Or simply listen in your browser:

Listen right in your browser(in browser, requires Flash)

UIII 270130Z 32008MPS 9999 BKN027CB 16/11 Q1011 R30/CLRD60 NOSIG RMK QFE713/0951

UIII Flight Activity (Flightaware)

Listeners: 2 out of 678 total

Irkutsk Approach: 125.200
Irkutsk Control (Sector 1): 133.400
Irkutsk Control (Sector 2): 124.700
Irkutsk Control (Sector 3): 134.100
Irkutsk Ground: 121.700
Irkutsk Radar: 119.300
Irkutsk Tower: 118.100

Notes:
Maximum traffic from 1700-0900 UTC
Traffic from Europe to Asia (Lufthansa, Air France, KLM, AA, Air Canada, Cathay, Singapore), all Chinese, Korean routes to Europe.

UNKL Gnd/Twr/App (Archives)
Krasnoyarsk, Russia

Feed Status: UP

Click on your favorite media player to listen:
Listen with WinAmp to UNKL Gnd/Twr/App  Listen with iTunes to UNKL Gnd/Twr/App  Click here to listen if using Real Player  Click here to listen if using Windows Media Player

Or simply listen in your browser:

Listen right in your browser(in browser, requires Flash)

UNKL 270130Z VRB01MPS CAVOK 19/12 Q1013 R29/CLRD65 NOSIG RMK QFE734

UNKL Flight Activity (Flightaware)

Listeners: 0 out of 678 total

Krasnoyarsk Approach: 127.700
Krasnoyarsk Ground: 121.700
Krasnoyarsk Krug: 122.000
Krasnoyarsk Tower: 118.300

UNNT Gnd/Twr/App/Radar/Misc (Archives)
Novosibirsk, Russia

Feed Status: UP

Click on your favorite media player to listen:
Listen with WinAmp to UNNT Gnd/Twr/App/Radar/Misc  Listen with iTunes to UNNT Gnd/Twr/App/Radar/Misc  Click here to listen if using Real Player  Click here to listen if using Windows Media Player

Or simply listen in your browser:

Listen right in your browser(in browser, requires Flash)

UNNT 270130Z 14005MPS 9999 BKN050CB 23/16 Q1004 R07/090070 R16/090070 NOSIG RMK QFE743/0990

UNNT Flight Activity (Flightaware)

Listeners: 1 out of 678 total

ACC_Novosibirsk-Control (Military): 128.500
ACC_Novosibirsk-Control (Southeast): 126.100
ACC_Novosibirsk-Control (West): 127.000
GPA_Kristallik (airfield Severniy): 123.425
GPA_Palma (airfield Mochische): 118.000
GPA_Sernisiy (airfield Chkalovskiy): 124.750
GPA_Tomsk Information 1: 134.500
GPA_Vihrevoy (airfield Evsino): 126.000
MIL_Larek: 123.750
MIL_Maneken (airfield Chkalovskiy): 123.550
MIL_Novosibirsk-1 (airbase Tolmachevo: 124.000
MIL_Noyabr 31: 124.900
MIL_Polyana: 129.800
MIL_Stvorka: 130.750
MIL_Trimaran: 124.500
OVB_Apron: 118.800
OVB_Backup frequency: 127.100
OVB_Novosibirsk-Approach: 127.500
OVB_Novosibirsk-Ground: 121.700
OVB_Novosibirsk-Radar: 122.000
OVB_Novosibirsk-Tower: 118.500
OVB_Novosibirsk-Transit: 131.600
OVB_S7 Service: 131.925
OVB_Tech. room: 118.900
SP_Air-to-Air: 123.450
SP_Air-to-Air 2: 123.400
SP_China chat: 136.975
SP_Common backup frequency: 129.000
SP_Emergency: 121.500
SP_Emergency 2: 123.100
SP_Flyoff: 124.375
SURF_Boarding: 163.425
SURF_Cargo operating: 163.300
SURF_Ground surf: 163.375
SURF_O&D Service: 163.325
SURF_Registration: 163.625
SURF_Security: 163.750
SURF_Supplies: 163.450
SURF_Tower surf: 163.650
SURF_Vehicles: 163.200

UNOO Gnd/Tower/App (Archives)
Omsk, Russia

Feed Status: UP

Click on your favorite media player to listen:
Listen with WinAmp to UNOO Gnd/Tower/App  Listen with iTunes to UNOO Gnd/Tower/App  Click here to listen if using Real Player  Click here to listen if using Windows Media Player

Or simply listen in your browser:

Listen right in your browser(in browser, requires Flash)

UNOO 270130Z 25004MPS 7000 -SHRA BKN005 BKN033CB 14/13 Q0997 R25/CLRD60 TEMPO 2000 SHRA BR BKN003 RMK OBST OBSC QFE740

UNOO Flight Activity (Flightaware)

Listeners: 0 out of 678 total

Aerodrom Kalachevo: 123.300
Aerodrom Marianovka: 123.000
Emergency/Guard: 121.500
Novosibirsk Control (Sector 7): 132.500
Novosibirsk Control (Sector 8): 132.900
Omsk Approach (FL060-FL265): 131.200
Omsk Apron: 118.800
Omsk Start/Radar: 119.000
Omsk Taxiing: 121.700
Omsk Transit: 131.700
UNOS/OMSK-Severny: 124.000

UNTT Gnd/Info/Radar/Control (Archives)
Tomsk, Russia

Feed Status: UP

Click on your favorite media player to listen:
Listen with WinAmp to UNTT Gnd/Info/Radar/Control  Listen with iTunes to UNTT Gnd/Info/Radar/Control  Click here to listen if using Real Player  Click here to listen if using Windows Media Player

Or simply listen in your browser:

Listen right in your browser(in browser, requires Flash)

UNTT Flight Activity (Flightaware)

Listeners: 0 out of 678 total

Krasnoyarsk Control (Sector 2): 133.300
Novosibirsk Control (Sector 2): 126.100
Novosibirsk Control (Sector 3): 129.300
Novosibirsk Control (Sector 5): 132.300
Tomsk Ground: 118.800
Tomsk Informaciya: 126.000
Tomsk Krug (Radar): 127.300
Troynik (Golovino): 122.400

USCC Gnd/Twr/App/Control (Archives)
Chelyabinsk, Russia

Feed Status: UP

Click on your favorite media player to listen:
Listen with WinAmp to USCC Gnd/Twr/App/Control  Listen with iTunes to USCC Gnd/Twr/App/Control  Click here to listen if using Real Player  Click here to listen if using Windows Media Player

Or simply listen in your browser:

Listen right in your browser(in browser, requires Flash)

USCC 270130Z 29004MPS 9999 FEW040CB 15/10 Q1006 R27/000060 NOSIG RMK QFE735

USCC Flight Activity (Flightaware)

Listeners: 0 out of 678 total

Chelyabinsk Approach: 124.700
Chelyabinsk Control (North): 125.400
Chelyabinsk Control (South): 125.500
Chelyabinsk Tower: 125.200
Chelyabinsk Transit: 131.600
Emergency/Guard: 121.500
Hvoyniy: 121.925
Military Flight Control: 128.500
Objektivniy (engineering service): 125.700
Peklo Tower: 131.350
Pilot-to-Pilot (Air to Air): 123.450
Plavnik - Dostupniy - Gavan Tower: 124.000
Plavnik-Peleng: 130.000
Pribautka: 122.250
Stolitsa: 120.250

USTR Gnd/Twr/App (Archives)
Tyumen, Russia

Feed Status: UP

Click on your favorite media player to listen:
Listen with WinAmp to USTR Gnd/Twr/App  Listen with iTunes to USTR Gnd/Twr/App  Click here to listen if using Real Player  Click here to listen if using Windows Media Player

Or simply listen in your browser:

Listen right in your browser(in browser, requires Flash)

USTR 270130Z 31002MPS 270V330 CAVOK 10/08 Q1003 R21/CLRD65 NOSIG RMK QFE743/0991

USTR Flight Activity (Flightaware)

Listeners: 0 out of 678 total

Tyumen Approach: 126.100
Tyumen Control: 132.600
Tyumen Control: 133.600
Tyumen Info (Regional): 133.400
Tyumen Start: 118.200
Tyumen Transit: 131.800

VCBI Radar
Colombo, Sri Lanka

Feed Status: DOWN
Offline since: 2016-06-27 00:53:05 UTC
VCBI 270110Z 21008KT 9000 FEW014 SCT016 27/25 Q1009 NOSIG

Colombo Radar: 126.000

VHHH App/Dep/Radar (Archives)
Hong Kong, Hong Kong

Feed Status: UP

Click on your favorite media player to listen:
Listen with WinAmp to VHHH App/Dep/Radar  Listen with iTunes to VHHH App/Dep/Radar  Click here to listen if using Real Player  Click here to listen if using Windows Media Player

Or simply listen in your browser:

Listen right in your browser(in browser, requires Flash)

VHHH 270130Z 03008KT 9999 FEW018 SCT035 34/25 Q1008 NOSIG

VHHH Flight Activity (Flightaware)

Listeners: 1 out of 678 total

Hong Kong Approach: 119.100
Hong Kong Departure Control: 122.000
Hong Kong Departure Control: 123.800
Hong Kong Director: 119.500
Hong Kong Zone Control: 120.600


Note: Feed manually alternates between listed frequencies.

VHHH Approach 119.1 (Archives)
Hong Kong, Hong Kong

Feed Status: UP

Click on your favorite media player to listen:
Listen with WinAmp to VHHH Approach 119.1  Listen with iTunes to VHHH Approach 119.1  Click here to listen if using Real Player  Click here to listen if using Windows Media Player

Or simply listen in your browser:

Listen right in your browser(in browser, requires Flash)

VHHH 270130Z 03008KT 9999 FEW018 SCT035 34/25 Q1008 NOSIG

VHHH Flight Activity (Flightaware)

Listeners: 0 out of 678 total

Hong Kong Approach: 119.100

VHHH Director (Archives)
Hong Kong, Hong Kong

Feed Status: UP

Click on your favorite media player to listen:
Listen with WinAmp to VHHH Director  Listen with iTunes to VHHH Director  Click here to listen if using Real Player  Click here to listen if using Windows Media Player

Or simply listen in your browser:

Listen right in your browser(in browser, requires Flash)

VHHH 270130Z 03008KT 9999 FEW018 SCT035 34/25 Q1008 NOSIG

VHHH Flight Activity (Flightaware)

Listeners: 0 out of 678 total

Hong Kong Director: 119.500

VHHH Ground (Archives)
Hong Kong, Hong Kong

Feed Status: UP

Click on your favorite media player to listen:
Listen with WinAmp to VHHH Ground  Listen with iTunes to VHHH Ground  Click here to listen if using Real Player  Click here to listen if using Windows Media Player

Or simply listen in your browser:

Listen right in your browser(in browser, requires Flash)

VHHH 270130Z 03008KT 9999 FEW018 SCT035 34/25 Q1008 NOSIG

VHHH Flight Activity (Flightaware)

Listeners: 1 out of 678 total

Hong Kong Ground (North): 121.600
Hong Kong Ground (South): 122.550

VHHH Ground (North) (Archives)
Hong Kong, Hong Kong

Feed Status: UP

Click on your favorite media player to listen:
Listen with WinAmp to VHHH Ground (North)  Listen with iTunes to VHHH Ground (North)  Click here to listen if using Real Player  Click here to listen if using Windows Media Player

Or simply listen in your browser:

Listen right in your browser(in browser, requires Flash)

VHHH 270130Z 03008KT 9999 FEW018 SCT035 34/25 Q1008 NOSIG

VHHH Flight Activity (Flightaware)

Listeners: 0 out of 678 total

Hong Kong Ground (North): 121.600

VHHH Ground (South) (Archives)
Hong Kong, Hong Kong

Feed Status: UP

Click on your favorite media player to listen:
Listen with WinAmp to VHHH Ground (South)  Listen with iTunes to VHHH Ground (South)  Click here to listen if using Real Player  Click here to listen if using Windows Media Player

Or simply listen in your browser:

Listen right in your browser(in browser, requires Flash)

VHHH 270130Z 03008KT 9999 FEW018 SCT035 34/25 Q1008 NOSIG

VHHH Flight Activity (Flightaware)

Listeners: 0 out of 678 total

Hong Kong Ground (South): 122.550

VHHH Tower (Archives)
Hong Kong, Hong Kong

Feed Status: UP

Click on your favorite media player to listen:
Listen with WinAmp to VHHH Tower  Listen with iTunes to VHHH Tower  Click here to listen if using Real Player  Click here to listen if using Windows Media Player

Or simply listen in your browser:

Listen right in your browser(in browser, requires Flash)

VHHH 270130Z 03008KT 9999 FEW018 SCT035 34/25 Q1008 NOSIG

VHHH Flight Activity (Flightaware)

Listeners: 2 out of 678 total

Hong Kong Tower (North): 118.200
Hong Kong Tower (South): 118.400

VHHH Tower (North) (Archives)
Hong Kong, Hong Kong

Feed Status: UP

Click on your favorite media player to listen:
Listen with WinAmp to VHHH Tower (North)  Listen with iTunes to VHHH Tower (North)  Click here to listen if using Real Player  Click here to listen if using Windows Media Player

Or simply listen in your browser:

Listen right in your browser(in browser, requires Flash)

VHHH 270130Z 03008KT 9999 FEW018 SCT035 34/25 Q1008 NOSIG

VHHH Flight Activity (Flightaware)

Listeners: 1 out of 678 total

Hong Kong Tower (North): 118.200

VHHH Tower (South) (Archives)
Hong Kong, Hong Kong

Feed Status: UP

Click on your favorite media player to listen:
Listen with WinAmp to VHHH Tower (South)  Listen with iTunes to VHHH Tower (South)  Click here to listen if using Real Player  Click here to listen if using Windows Media Player

Or simply listen in your browser:

Listen right in your browser(in browser, requires Flash)

VHHH 270130Z 03008KT 9999 FEW018 SCT035 34/25 Q1008 NOSIG

VHHH Flight Activity (Flightaware)

Listeners: 0 out of 678 total

Hong Kong Tower (South): 118.400

VHHH Zone (Archives)
Hong Kong, Hong Kong

Feed Status: UP

Click on your favorite media player to listen:
Listen with WinAmp to VHHH Zone  Listen with iTunes to VHHH Zone  Click here to listen if using Real Player  Click here to listen if using Windows Media Player

Or simply listen in your browser:

Listen right in your browser(in browser, requires Flash)

VHHH 270130Z 03008KT 9999 FEW018 SCT035 34/25 Q1008 NOSIG

VHHH Flight Activity (Flightaware)

Listeners: 0 out of 678 total

Hong Kong Zone: 120.600

VTBS App/Dep (Archives)
Bangkok, Thailand

Feed Status: UP

Click on your favorite media player to listen:
Listen with WinAmp to VTBS App/Dep  Listen with iTunes to VTBS App/Dep  Click here to listen if using Real Player  Click here to listen if using Windows Media Player

Or simply listen in your browser:

Listen right in your browser(in browser, requires Flash)

VTBS 270130Z 26003KT 210V290 9999 FEW020 28/24 Q1008 NOSIG

VTBS Flight Activity (Flightaware)

Listeners: 0 out of 678 total

Bangkok Approach: 122.350
Bangkok Approach: 124.350
Bangkok Approach: 125.200
Bangkok Approach: 119.400
Bangkok Approach: 125.800
Bangkok Approach/Departure: 119.100
Bangkok Approach/Departure: 121.700
Bangkok Arrival: 121.100

VTBS Gnd/Twr (Archives)
Bangkok, Thailand

Feed Status: UP

Click on your favorite media player to listen:
Listen with WinAmp to VTBS Gnd/Twr  Listen with iTunes to VTBS Gnd/Twr  Click here to listen if using Real Player  Click here to listen if using Windows Media Player

Or simply listen in your browser:

Listen right in your browser(in browser, requires Flash)

VTBS 270130Z 26003KT 210V290 9999 FEW020 28/24 Q1008 NOSIG

VTBS Flight Activity (Flightaware)

Listeners: 0 out of 678 total

Bangkok Ground: 121.650
Bangkok Ground: 121.750
Bangkok Ground: 121.950
Bangkok Tower: 119.000
Bangkok Tower: 118.200

VTSM Tower
Koh Samui, Thailand

Feed Status: DOWN
Offline since: 2016-06-05 14:59:03 UTC
VTSM 270100Z 31005KT 9999 FEW020 31/24 Q1009 A2982

Samui Tower: 118.900

VVTS Gnd/Twr/App/Control (Archives)
Ho Chi Minh City, Vietnam

Feed Status: UP

Click on your favorite media player to listen:
Listen with WinAmp to VVTS Gnd/Twr/App/Control  Listen with iTunes to VVTS Gnd/Twr/App/Control  Click here to listen if using Real Player  Click here to listen if using Windows Media Player

Or simply listen in your browser:

Listen right in your browser(in browser, requires Flash)

VVTS 270130Z 28007KT 9999 SCT015 BKN040 28/25 Q1008 NOSIG

VVTS Flight Activity (Flightaware)

Listeners: 1 out of 678 total

Ho Chi Minh Control: 120.900
Ho Chi Minh Ground: 121.900
Ho Chi Minh Tower: 118.700
Tan Son Nhat Approach/Departure: 125.500

WARR Gnd/Twr/Radar (Archives)
Surabaya, Indonesia

Feed Status: UP

Click on your favorite media player to listen:
Listen with WinAmp to WARR Gnd/Twr/Radar  Listen with iTunes to WARR Gnd/Twr/Radar  Click here to listen if using Real Player  Click here to listen if using Windows Media Player

Or simply listen in your browser:

Listen right in your browser(in browser, requires Flash)

WARR 270130Z 24004KT 160V300 8000 FEW020 29/24 Q1011 NOSIG


Listeners: 0 out of 678 total

Juanda Ground: 119.150
Juanda Tower: 118.300
Surabaya Director: 123.200
Surabaya East Control: 124.000
Surabaya West Control: 125.100

WBKK Gnd/Twr/App (Archives)
Kota Kinabalu, Malaysia

Feed Status: UP

Click on your favorite media player to listen:
Listen with WinAmp to WBKK Gnd/Twr/App  Listen with iTunes to WBKK Gnd/Twr/App  Click here to listen if using Real Player  Click here to listen if using Windows Media Player

Or simply listen in your browser:

Listen right in your browser(in browser, requires Flash)

WBKK 270130Z 27008KT 9000 -RA FEW014 SCT035 BKN260 26/25 Q1012 NOSIG


Listeners: 1 out of 678 total

Kinabalu Director: 119.100
Kinabalu Ground: 121.600
Kinabalu Radar: 126.100
Kinabalu Radar: 132.450
Kinabalu Tower: 118.300

WIPP Gnd/Twr/App/Dep (Archives)
Palembang, Indonesia

Feed Status: UP

Click on your favorite media player to listen:
Listen with WinAmp to WIPP Gnd/Twr/App/Dep  Listen with iTunes to WIPP Gnd/Twr/App/Dep  Click here to listen if using Real Player  Click here to listen if using Windows Media Player

Or simply listen in your browser:

Listen right in your browser(in browser, requires Flash)

WIPP 270130Z 07003KT 9999 FEW012 24/23 Q1011 NOSIG


Listeners: 0 out of 678 total

Palembang Approach/Departure/Center: 119.200
Palembang Ground/Tower: 118.100

WMKB Radar (Archives)
Penang, Malaysia

Feed Status: UP

Click on your favorite media player to listen:
Listen with WinAmp to WMKB Radar  Listen with iTunes to WMKB Radar  Click here to listen if using Real Player  Click here to listen if using Windows Media Player

Or simply listen in your browser:

Listen right in your browser(in browser, requires Flash)

WMKB 270100Z 07003KT 6000 FEW020 BKN140 BKN270 28/26 Q1009 NOSIG


Listeners: 3 out of 678 total

Butterworth Radar: 125.800

Lumpur Control/Radar (North) (Archives)
Sepang, Malaysia

Feed Status: UP

Click on your favorite media player to listen:
Listen with WinAmp to Lumpur Control/Radar (North)  Listen with iTunes to Lumpur Control/Radar (North)  Click here to listen if using Real Player  Click here to listen if using Windows Media Player

Or simply listen in your browser:

Listen right in your browser(in browser, requires Flash)

WMKK 270130Z 13002KT 9999 FEW018 SCT140 BKN280 29/23 Q1009 NOSIG


Listeners: 1 out of 678 total

Lumpur Control/Radar (North): 132.800

Lumpur Control/Radar (South) (Archives)
Sepang, Malaysia

Feed Status: UP

Click on your favorite media player to listen:
Listen with WinAmp to Lumpur Control/Radar (South)  Listen with iTunes to Lumpur Control/Radar (South)  Click here to listen if using Real Player  Click here to listen if using Windows Media Player

Or simply listen in your browser:

Listen right in your browser(in browser, requires Flash)

WMKK 270130Z 13002KT 9999 FEW018 SCT140 BKN280 29/23 Q1009 NOSIG


Listeners: 1 out of 678 total

Lumpur Control/Radar (South): 123.750

WMKK Lumpur Control/Radar (East) (Archives)
Sepang, Malaysia

Feed Status: UP

Click on your favorite media player to listen:
Listen with WinAmp to WMKK Lumpur Control/Radar (East)  Listen with iTunes to WMKK Lumpur Control/Radar (East)  Click here to listen if using Real Player  Click here to listen if using Windows Media Player

Or simply listen in your browser:

Listen right in your browser(in browser, requires Flash)

WMKK 270130Z 13002KT 9999 FEW018 SCT140 BKN280 29/23 Q1009 NOSIG


Listeners: 0 out of 678 total

Lumpur Contro/Radar (East): 134.250

WMSA/WMKK Twr/App/Radar
Sepang, Malaysia

Feed Status: DOWN
Offline since: 2016-06-22 19:22:04 UTC
WMSA 270100Z 13004KT 080V170 9999 FEW020 SCT140 BKN280 29/24 Q1010

Air Force Ground: 125.200
Air Force Ground: 120.300
Lumpur Approach: 119.450
Lumpur Approach: 132.800
Lumpur Approach: 132.600
Lumpur Approach: 133.400
Lumpur Approach: 123.750
Lumpur Director: 125.100
Lumpur Director: 124.200
Lumpur Tower: 118.500
Lumpur Tower: 118.800
Misc-TBD:
Subang Tower: 118.200

WMKP Tower (Archives)
Penang, Malaysia

Feed Status: UP

Click on your favorite media player to listen:
Listen with WinAmp to WMKP Tower  Listen with iTunes to WMKP Tower  Click here to listen if using Real Player  Click here to listen if using Windows Media Player

Or simply listen in your browser:

Listen right in your browser(in browser, requires Flash)

WMKP 270130Z 23002KT 8000 FEW020 BKN140 BKN270 30/25 Q1009 NOSIG


Listeners: 0 out of 678 total

Penang Tower: 121.100

WMSA/WMKK Twr/App/Radar
Subang, Malaysia

Feed Status: DOWN
Offline since: 2016-06-22 19:22:04 UTC
WMSA 270100Z 13004KT 080V170 9999 FEW020 SCT140 BKN280 29/24 Q1010

Air Force Ground: 125.200
Air Force Ground: 120.300
Lumpur Approach: 119.450
Lumpur Approach: 132.800
Lumpur Approach: 132.600
Lumpur Approach: 133.400
Lumpur Approach: 123.750
Lumpur Director: 125.100
Lumpur Director: 124.200
Lumpur Tower: 118.500
Lumpur Tower: 118.800
Misc-TBD:
Subang Tower: 118.200

WSAP Approach
Singapore, Singapore

Feed Status: DOWN
Offline since: 2016-06-19 12:23:03 UTC
WSAP 270100Z 18007KT 9999 FEW018 BKN150 28/24 Q1009

Paya Lebar Approach: 119.900

WSAP Tower
Singapore, Singapore

Feed Status: DOWN
Offline since: 2016-06-19 12:23:03 UTC
WSAP 270100Z 18007KT 9999 FEW018 BKN150 28/24 Q1009

Paya Lebar Tower: 118.050

WSSL Tower
Singapore, Singapore

Feed Status: DOWN
Offline since: 2016-06-19 12:23:03 UTC
WSSL 270100Z 17006KT 9999 FEW018 SCT150 BKN270 29/24 Q1009 RMK 0030Z Q1009

Seletar Tower: 118.450

WSSS Approach/Departure
Singapore, Singapore

Feed Status: DOWN
Offline since: 2016-06-19 12:23:03 UTC
WSSS 270200Z 20005KT 180V240 9999 FEW020 BKN160 29/24 Q1010 NOSIG

Singapore Approach/Departure: 120.300

WSSS Arrival
Singapore, Singapore

Feed Status: DOWN
Offline since: 2016-06-19 12:23:03 UTC
WSSS 270200Z 20005KT 180V240 9999 FEW020 BKN160 29/24 Q1010 NOSIG

Singapore Arrival: 119.300

WSSS Radar
Singapore, Singapore

Feed Status: DOWN
Offline since: 2016-06-19 12:23:03 UTC
WSSS 270200Z 20005KT 180V240 9999 FEW020 BKN160 29/24 Q1010 NOSIG

Singapore Control: 134.350
Singapore Radar: 124.050
Singapore Radar (East): 123.700
Singapore Radar (SE): 134.200
Singapore Radar (South): 134.400
Singapore Radar (West): 133.250

WSSS Tower #1
Singapore, Singapore

Feed Status: DOWN
Offline since: 2016-06-19 12:23:03 UTC
WSSS 270200Z 20005KT 180V240 9999 FEW020 BKN160 29/24 Q1010 NOSIG

Singapore Tower: 118.600

WSSS Tower #2
Singapore, Singapore

Feed Status: DOWN
Offline since: 2016-06-19 12:23:03 UTC
WSSS 270200Z 20005KT 180V240 9999 FEW020 BKN160 29/24 Q1010 NOSIG

Singapore Tower (Rwy 02R/20L 0000-1600Z): 118.250

WSSS Tower (both)
Singapore, Singapore

Feed Status: DOWN
Offline since: 2016-06-19 12:23:03 UTC
WSSS 270200Z 20005KT 180V240 9999 FEW020 BKN160 29/24 Q1010 NOSIG

Singapore Tower: 118.600
Singapore Tower (Rwy 02R/20L 0000-1600Z): 118.250

ZBAA Tower (Archives)
Beijing, China

Feed Status: UP

Click on your favorite media player to listen:
Listen with WinAmp to ZBAA Tower  Listen with iTunes to ZBAA Tower  Click here to listen if using Real Player  Click here to listen if using Windows Media Player

Or simply listen in your browser:

Listen right in your browser(in browser, requires Flash)

ZBAA 270130Z 04003MPS 9999 -SHRA NSC 23/16 Q1003 NOSIG


Listeners: 2 out of 678 total

Beijing Tower (Rwy 01/19): 118.600

ZLXY Twr/App (Archives)
Xian, China

Feed Status: UP

Click on your favorite media player to listen:
Listen with WinAmp to ZLXY Twr/App  Listen with iTunes to ZLXY Twr/App  Click here to listen if using Real Player  Click here to listen if using Windows Media Player

Or simply listen in your browser:

Listen right in your browser(in browser, requires Flash)

ZLXY 270100Z 25003MPS 190V300 7000 NSC 25/20 Q1008 NOSIG


Listeners: 0 out of 678 total

Xian Approach 01: 125.100
Xian Approach 02: 119.050
Xian Approach 03: 119.600
Xian Approach 04: 119.900
Xian Tower (North): 124.300
Xian Tower (South): 130.450

ZSSS Approach
Shanghai, China

Feed Status: DOWN
Offline since: 2016-04-21 06:09:09 UTC
ZSSS 270130Z 13004MPS 7000 BKN007 23/22 Q1007 NOSIG

Hongqiao Delivery (evening): 121.750
Shanghai Approach (morning): 126.650

ZUGY Gnd/Twr
Guiyang, China

Feed Status: DOWN
Offline since: 2016-06-26 14:12:04 UTC
ZUGY 270100Z 21005MPS 9999 BKN020 OVC040 24/21 Q1013 NOSIG

Guiyang Tower: 118.300